星链-32550 (STARLINK-32550)

导读 | 豆包AI

STARLINK-32550是美国SpaceX公司星链星座的卫星,于2024年11月27日发射。星链项目旨在构建全球卫星互联网星座,为全球偏远地区、海洋航空等场景提供高速宽带网络服务。作为星链系统的一员,该卫星会进一步扩充星链星座规模,提升星座覆盖能力与服务稳定性,助力全球无缝网络覆盖的实现。

Basic Information
目录编号:
62131
目录名称:
STARLINK-32550
国际标识:
2024-222T
轨道中心:
EARTH
卫星名称:
星链-32550
卫星全名:
星链-32550 (STARLINK-32550)
卫星状态:
在轨 (已飞行520 天)
发射日期:
2024-11-27 UTC
国别 :
美国 (US)
星等 :
--
Orbit Information
数据来源 国际轨道数据 AOE轨道数据
星历时间 2026-04-30T22:09:59+0800
12小时前
查看轨道信息
2026-04-30T08:00:00+0800
1天前
查看轨道信息
半长轴 6861.122km 6861.194km
偏心率 0.0001392 0.0002214
轨道倾角 42.999° 43.004°
近地点辐角 271.459° 297.544°
升交点赤经 203.317° 206.654°
平近点角 88.610° 52.641°
近地点 482.029km 481.537km
远地点 483.941km 484.577km
周期 94.265分钟 94.267分钟
每日圈数 15.276015 15.275775
Detailed Information
固有亮度:
5
最大亮度:
2.5
卫星平台:
Starlink V1.0
覆盖范围:
全球
运营商:
太空探索技术公司
运营商所在国:
美国
制造商(研发单位):
太空探索技术公司
制造商所在国:
美国
使用方式:
暂无
Satellite Introduction
Starlink 计划是 SpaceX 推出的全球卫星互联网项目,通过发射低轨道卫星,为全球尤其是偏远地区提供高速、低延迟的互联网服务。自 2019 年起,Starlink 已部署数千颗卫星,旨在缩小全球数字鸿沟,推动互联网普及。该项目还为军事、航空等行业提供通信支持,带来广泛经济效益。
2D Orbit Map
3D Orbit Map
Orbit Altitude Analysis Chart
Orbit Inclination Analysis Chart
Orbit Comprehensive Analysis Chart
View Comprehensive Chart